This is the latest recevied weather packets stored in our database for station/object KO4ZGL-13. If no packets are shown the sender has not sent any weather packets the latest 10 day(s).
| Time | Temp. | Humidity | Pressure | Rain* | Wind** | Luminosity | Snow |
|---|---|---|---|---|---|---|---|
| 1787926449 | 23.89° C | 99% | 1018.3 hPa | 0 mm | - | 166 W/m² | - |
| 1787926149 | 24.44° C | 99% | 1018.3 hPa | 0 mm | - | 159 W/m² | - |
| 1787925848 | 24.44° C | 99% | 1018.1 hPa | 0 mm | - | 158 W/m² | - |
| 1787925548 | 24.44° C | 99% | 1018.2 hPa | 0 mm | - | 144 W/m² | - |
| 1787925243 | 24.44° C | 99% | 1018.3 hPa | 0 mm | - | 125 W/m² | - |
| 1787924941 | 23.89° C | 99% | 1018.1 hPa | 0 mm | - | 118 W/m² | - |
| 1787924636 | 23.89° C | 99% | 1017.9 hPa | 0 mm | - | 135 W/m² | - |
| 1787924331 | 23.89° C | 99% | 1018 hPa | 0 mm | - | 159 W/m² | - |
| 1787924026 | 23.89° C | 99% | 1017.9 hPa | 0 mm | - | 179 W/m² | - |
| 1787923721 | 23.89° C | 99% | 1017.7 hPa | 0 mm | - | 182 W/m² | - |
| 1787923416 | 23.89° C | 99% | 1017.7 hPa | 0 mm | - | 236 W/m² | - |
| 1787923111 | 23.89° C | 99% | 1017.8 hPa | 0 mm | - | 156 W/m² | - |
| 1787922805 | 23.89° C | 99% | 1017.8 hPa | 0 mm | - | 151 W/m² | - |
| 1787922499 | 23.89° C | 99% | 1017.6 hPa | 0 mm | - | 118 W/m² | - |
| 1787922199 | 23.33° C | 99% | 1017.6 hPa | 0 mm | - | 101 W/m² | - |
| 1787921896 | 23.33° C | 99% | 1017.5 hPa | 0 mm | - | 88 W/m² | - |
| 1787921591 | 23.89° C | 99% | 1017.5 hPa | 0 mm | - | 91 W/m² | - |
| 1787921291 | 23.33° C | 99% | 1017.4 hPa | 0 mm | - | 95 W/m² | - |
| 1787920987 | 23.33° C | 99% | 1017.4 hPa | 0 mm | - | 94 W/m² | - |
| 1787920682 | 23.33° C | 99% | 1017.2 hPa | 0 mm | - | 90 W/m² | - |
| 1787920381 | 23.33° C | 99% | 1017.5 hPa | 0 mm | - | 89 W/m² | - |
| 1787920078 | 22.78° C | 99% | 1017.5 hPa | 0 mm | - | 87 W/m² | - |
| 1787919773 | 22.78° C | 99% | 1017.5 hPa | 0 mm | - | 88 W/m² | - |
| 1787919473 | 22.78° C | 99% | 1017.4 hPa | 0 mm | - | 91 W/m² | - |
| 1787919169 | 22.78° C | 99% | 1017.5 hPa | 0 mm | - | 89 W/m² | - |
* Rain latest hour (hover to see other rain measurements)
** Current wind speed in m/s (hover to see current wind gust speed)